Rockingham, NC

7:43 AM EDT on April 23, 2017 (GMT -0400)
Rockingham

Weather History for KRCZ - February, 2013

Change the Weather History Date:

Saturday, February 23, 2013

  Actual Average (KHFF) Record (KHFF)
Temperature  
Mean Temperature 40 °F -  
Max Temperature 44 °F 52 °F 76 °F (2012)
Min Temperature 36 °F 34 °F 24 °F (1999)
Degree Days  
Heating Degree Days 25    
Moisture  
Dew Point 41 °F    
Average Humidity 100    
Maximum Humidity 100    
Minimum Humidity 97    
Precipitation  
Precipitation 0.48 in - - ()
Sea Level Pressure  
Sea Level Pressure 29.94 in    
Wind  
Wind Speed 4 mph (North)    
Max Wind Speed 8 mph    
Max Gust Speed -    
Visibility 4 miles    
Events Fog , Rain    
Averages and records for this station are not official NWS values.
T = Trace of Precipitation, MM = Missing Value Source: NWS Daily Summary

Daily Weather History Graph

Daily Weather History Graph

Search for Another Location

Airport or City:

Trip Planner

Search our weather history database for the weather conditions in past years. The results will help you decide how hot, cold, wet, or windy it might be!

Date:

Astronomy

Feb. 23, 2013 Rise Set
Actual Time 6:55 AM EST 6:09 PM EST
Civil Twilight 6:29 AM EST 6:35 PM EST
Nautical Twilight 6:00 AM EST 7:04 PM EST
Astronomical Twilight 5:31 AM EST 7:33 PM EST
Moon 4:20 PM EST 5:13 AM EST
Length of Visible Light 12h 05m
Length of Day
11h 14m
Waxing Gibbous, 95% of the Moon is Illuminated
Feb 23
Waxing Gibbous
Feb 25
Full
Mar 4
Last Quarter
Mar 11
New
Mar 19
First Quarter

Hourly Weather History & Observations

Time (EST) Temp. Windchill Dew Point Humidity Pressure Visibility Wind Dir Wind Speed Gust Speed Precip Events Conditions
12:15 AM 36.7 °F 34.1 °F 36.7 °F 100% 30.09 in 3.0 mi NE 3.5 mph - N/A   Overcast
12:35 AM 37.0 °F 33.3 °F 37.0 °F 100% 30.09 in 3.0 mi North 4.6 mph - N/A   Overcast
12:55 AM 37.0 °F 33.3 °F 37.0 °F 100% 30.09 in 2.5 mi North 4.6 mph - N/A   Overcast
1:15 AM 37.0 °F 33.3 °F 37.0 °F 100% 30.10 in 2.0 mi North 4.6 mph - N/A   Overcast
1:35 AM 37.0 °F 33.3 °F 37.0 °F 100% 30.09 in 1.8 mi North 4.6 mph - N/A   Overcast
1:55 AM 37.0 °F 32.4 °F 37.0 °F 100% 30.08 in 1.8 mi North 5.8 mph - N/A   Overcast
2:15 AM 37.0 °F 33.3 °F 37.0 °F 100% 30.07 in 2.5 mi North 4.6 mph - N/A   Overcast
2:35 AM 37.0 °F - 37.0 °F 100% 30.06 in 2.5 mi Calm Calm - N/A   Overcast
2:55 AM 37.0 °F 33.3 °F 37.0 °F 100% 30.04 in 1.2 mi North 4.6 mph - 0.10 in Rain Heavy Rain
3:15 AM 37.0 °F 32.4 °F 37.0 °F 100% 30.02 in 3.0 mi North 5.8 mph - 0.04 in Rain Rain
3:35 AM 37.0 °F 32.4 °F 37.0 °F 100% 30.01 in 5.0 mi North 5.8 mph - 0.05 in Rain Light Rain
3:55 AM 37.0 °F 33.3 °F 37.0 °F 100% 30.01 in 7.0 mi North 4.6 mph - 0.06 in   Overcast
4:15 AM 37.0 °F 33.3 °F 37.0 °F 100% 30.01 in 10.0 mi North 4.6 mph - N/A   Overcast
4:35 AM 37.4 °F 32.8 °F 37.4 °F 100% 30.02 in 10.0 mi NNW 5.8 mph - N/A   Overcast
4:55 AM 37.4 °F 33.8 °F 37.4 °F 100% 30.02 in 10.0 mi North 4.6 mph - N/A   Overcast
5:15 AM 37.6 °F 35.1 °F 37.6 °F 100% 30.03 in 7.0 mi North 3.5 mph - N/A Rain Light Rain
5:35 AM 37.6 °F 32.3 °F 37.6 °F 100% 30.01 in 5.0 mi NNE 6.9 mph - 0.02 in Rain Light Rain
5:55 AM 37.8 °F 34.2 °F 37.8 °F 100% 30.00 in 5.0 mi NE 4.6 mph - 0.05 in Rain Light Rain
6:15 AM 37.9 °F 32.1 °F 37.9 °F 100% 29.98 in 7.0 mi NNE 8.1 mph - 0.01 in Rain Light Rain
6:35 AM 38.3 °F 33.9 °F 38.3 °F 100% 30.00 in 3.0 mi NNE 5.8 mph - 0.04 in Rain Rain
7:15 AM 38.5 °F 36.1 °F 38.5 °F 100% 29.98 in 4.0 mi ENE 3.5 mph - 0.03 in Rain Rain
7:35 AM 38.7 °F 35.2 °F 38.7 °F 100% 29.98 in 5.0 mi East 4.6 mph - 0.04 in Rain Rain
7:55 AM 38.7 °F 34.3 °F 38.7 °F 100% 29.96 in 7.0 mi NE 5.8 mph - 0.05 in Rain Rain
8:15 AM 39.2 °F 37.0 °F 39.2 °F 100% 30.00 in 1.8 mi North 3.5 mph - 0.05 in Rain Heavy Rain
8:35 AM 39.2 °F 37.0 °F 39.2 °F 100% 29.99 in 1.8 mi NNE 3.5 mph - 0.13 in Rain Rain
8:55 AM 39.4 °F 36.1 °F 39.4 °F 100% 29.97 in 7.0 mi NE 4.6 mph - 0.16 in Rain Light Rain
9:15 AM 39.7 °F 36.5 °F 39.7 °F 100% 29.95 in 10.0 mi ENE 4.6 mph - 0.01 in Rain Light Rain
9:55 AM 41.2 °F 38.2 °F 41.2 °F 100% 29.96 in 10.0 mi North 4.6 mph - 0.01 in   Overcast
10:15 AM 41.4 °F 38.4 °F 41.4 °F 100% 29.97 in 10.0 mi NNW 4.6 mph - N/A   Overcast
10:35 AM 41.2 °F 38.2 °F 41.0 °F 99% 29.96 in 10.0 mi North 4.6 mph - N/A   Overcast
10:55 AM 41.9 °F 38.2 °F 41.5 °F 99% 29.95 in 10.0 mi North 5.8 mph - N/A   Overcast
11:15 AM 42.1 °F 40.2 °F 41.9 °F 99% 29.96 in 10.0 mi North 3.5 mph - N/A   Overcast
11:35 AM 42.4 °F 39.6 °F 41.9 °F 98% 29.96 in 10.0 mi NNW 4.6 mph - N/A   Overcast
11:55 AM 42.6 °F 39.9 °F 42.1 °F 98% 29.95 in 7.0 mi NNW 4.6 mph - N/A   Overcast
12:15 PM 42.8 °F 41.1 °F 42.1 °F 97% 29.94 in 4.0 mi North 3.5 mph - N/A   Overcast
12:35 PM 42.8 °F 39.3 °F 42.4 °F 99% 29.93 in 3.0 mi North 5.8 mph - N/A   Overcast
12:55 PM 43.0 °F 40.3 °F 42.8 °F 99% 29.93 in 2.5 mi North 4.6 mph - N/A   Overcast
1:15 PM 43.0 °F - 43.0 °F 100% 29.93 in 3.0 mi Calm Calm - N/A   Overcast
1:35 PM 43.3 °F 41.7 °F 43.3 °F 100% 29.93 in 1.8 mi NW 3.5 mph - N/A   Light Drizzle
1:55 PM 43.9 °F 42.3 °F 43.9 °F 100% 29.92 in 1.2 mi NW 3.5 mph - N/A   Overcast
2:15 PM 44.6 °F 43.1 °F 44.6 °F 100% 29.92 in 2.0 mi NNW 3.5 mph - 0.01 in   Overcast
2:35 PM 44.6 °F - 44.6 °F 100% 29.90 in 2.0 mi Calm Calm - 0.01 in   Overcast
2:55 PM 44.6 °F 43.1 °F 44.6 °F 100% 29.89 in 2.0 mi North 3.5 mph - 0.01 in   Overcast
3:15 PM 44.6 °F - 44.6 °F 100% 29.87 in 2.5 mi Calm Calm - N/A   Overcast
3:35 PM 44.6 °F 43.1 °F 44.6 °F 100% 29.87 in 4.0 mi NW 3.5 mph - N/A   Overcast
3:55 PM 44.6 °F 42.2 °F 44.6 °F 100% 29.88 in 4.0 mi WNW 4.6 mph - N/A   Overcast
4:15 PM 43.7 °F 39.7 °F 43.7 °F 100% 29.88 in 2.0 mi WNW 6.9 mph - N/A   Overcast
4:35 PM 43.7 °F 41.1 °F 43.7 °F 100% 29.87 in 10.0 mi North 4.6 mph - N/A   Overcast
4:55 PM 43.9 °F 40.5 °F 43.9 °F 100% 29.88 in 10.0 mi NNW 5.8 mph - N/A   Overcast
5:15 PM 43.7 °F 42.1 °F 43.7 °F 100% 29.88 in 7.0 mi NNW 3.5 mph - N/A   Overcast
5:35 PM 43.7 °F - 43.7 °F 100% 29.85 in 4.0 mi Calm Calm - N/A   Overcast
5:55 PM 43.7 °F - 43.7 °F 100% 29.86 in 3.0 mi Calm Calm - N/A   Overcast
6:15 PM 43.7 °F 41.1 °F 43.7 °F 100% 29.86 in 3.0 mi NW 4.6 mph - N/A   Overcast
6:35 PM 43.7 °F - 43.7 °F 100% 29.85 in 1.5 mi Calm Calm - N/A   Overcast
6:55 PM 43.5 °F - 43.5 °F 100% 29.87 in 2.0 mi Calm Calm - N/A   Overcast
7:15 PM 43.3 °F 41.7 °F 43.3 °F 100% 29.87 in 1.2 mi WNW 3.5 mph - N/A   Overcast
7:35 PM 43.2 °F - 43.2 °F 100% 29.88 in 0.8 mi Calm Calm - N/A   Overcast
7:55 PM 43.2 °F 41.5 °F 43.2 °F 100% 29.89 in 0.8 mi WNW 3.5 mph - N/A   Overcast
8:15 PM 43.2 °F - 43.2 °F 100% 29.89 in 0.8 mi Calm Calm - N/A   Overcast
8:35 PM 43.2 °F - 43.2 °F 100% 29.87 in 0.5 mi Calm Calm - N/A Fog Fog
8:55 PM 43.2 °F - 43.2 °F 100% 29.89 in 0.5 mi Calm Calm - N/A Fog Fog
9:15 PM 43.2 °F - 43.2 °F 100% 29.88 in 0.5 mi Calm Calm - N/A Fog Fog
9:35 PM 43.2 °F - 43.2 °F 100% 29.87 in 0.5 mi Calm Calm - N/A Fog Fog
9:55 PM 43.2 °F 41.5 °F 43.2 °F 100% 29.86 in 0.8 mi South 3.5 mph - N/A   Overcast
10:15 PM 43.2 °F 40.5 °F 43.2 °F 100% 29.88 in 0.8 mi SSW 4.6 mph - N/A   Overcast
10:35 PM 43.2 °F - 43.2 °F 100% 29.85 in 0.5 mi Calm Calm - N/A Fog Fog
10:55 PM 43.0 °F 40.3 °F 43.0 °F 100% 29.83 in 0.8 mi SE 4.6 mph - N/A   Overcast
11:15 PM 43.2 °F 40.5 °F 43.2 °F 100% 29.85 in 1.0 mi West 4.6 mph - N/A   Overcast
11:35 PM 43.2 °F 39.7 °F 43.2 °F 100% 29.87 in 1.0 mi West 5.8 mph - N/A   Overcast
11:55 PM 43.2 °F - 43.2 °F 100% 29.86 in 0.8 mi Calm Calm - N/A   Overcast